QPF
0.00 0.00 0.00 0.00 0.00 0.00 0.00 0.00 0.00 0.00 0.00 0.00 0.00 0.00 0.00 0.00 0.00 0.00 0.00 0.00 0.00 0.00 0.00 0.01 0.01 0.02 0.02 0.03 0.03 0.03 0.03 0.04 0.04 0.05 0.06 0.08 0.10 0.12
0.00 0.00 0.00 0.00 0.00 0.00 0.00 0.00 0.00 0.00 0.00 0.00 0.00 0.00 0.00 0.00 0.00 0.00 0.00 0.00 0.00 0.00 0.00 0.00 0.01 0.01 0.02 0.03 0.03 0.03 0.04 0.04 0.04 0.05 0.07 0.09 0.12 0.13
0.00 0.00 0.01 0.01 0.01 0.01 0.00 0.00 0.00 0.00 0.00 0.00 0.00 0.00 0.00 0.00 0.00 0.00 0.00 0.00 0.00 0.00 0.00 0.00 0.01 0.01 0.02 0.03 0.04 0.04 0.04 0.05 0.05 0.06 0.08 0.11 0.13 0.15
0.01 0.01 0.01 0.01 0.01 0.01 0.00 0.00 0.00 0.00 0.00 0.00 0.00 0.00 0.00 0.00 0.00 0.00 0.00 0.00 0.00 0.00 0.00 0.01 0.01 0.02 0.03 0.04 0.04 0.05 0.05 0.05 0.05 0.05 0.07 0.10 0.12 0.14
0.01 0.01 0.01 0.01 0.01 0.01 0.01 0.00 0.00 0.00 0.00 0.01 0.00 0.00 0.00 0.00 0.00 0.00 0.00 0.00 0.00 0.00 0.00 0.01 0.01 0.01 0.02 0.03 0.04 0.04 0.04 0.05 0.05 0.05 0.05 0.06 0.09 0.11
0.01 0.01 0.01 0.01 0.01 0.01 0.01 0.01 0.00 0.00 0.00 0.01 0.01 0.00 0.00 0.00 0.01 0.01 0.01 0.00 0.00 0.00 0.00 0.00 0.00 0.01 0.01 0.02 0.02 0.03 0.03 0.03 0.04 0.04 0.05 0.05 0.07 0.09
0.01 0.01 0.01 0.01 0.01 0.01 0.01 0.01 0.01 0.01 0.02 0.02 0.02 0.01 0.01 0.01 0.01 0.01 0.01 0.01 0.00 0.00 0.00 0.00 0.00 0.00 0.00 0.00 0.00 0.01 0.01 0.01 0.02 0.03 0.03 0.04 0.06 0.08
0.01 0.01 0.01 0.01 0.01 0.02 0.02 0.02 0.02 0.03 0.03 0.03 0.03 0.02 0.01 0.01 0.01 0.01 0.01 0.02 0.01 0.00 0.00 0.00 0.00 0.00 0.00 0.00 0.00 0.01 0.01 0.02 0.02 0.02 0.03 0.03 0.04 0.06
0.01 0.01 0.01 0.01 0.01 0.02 0.02 0.03 0.03 0.03 0.03 0.03 0.04 0.02 0.01 0.01 0.01 0.02 0.02 0.02 0.02 0.01 0.01 0.01 0.00 0.00 0.00 0.00 0.00 0.01 0.02 0.02 0.03 0.03 0.03 0.03 0.03 0.04
0.01 0.01 0.02 0.01 0.01 0.02 0.02 0.02 0.01 0.01 0.01 0.01 0.02 0.01 0.01 0.01 0.02 0.05 0.06 0.05 0.02 0.01 0.01 0.02 0.01 0.00 0.00 0.00 0.00 0.01 0.02 0.02 0.03 0.03 0.03 0.03 0.03 0.03
0.01 0.01 0.02 0.02 0.01 0.02 0.04 0.02 0.01 0.01 0.01 0.01 0.02 0.02 0.02 0.03 0.04 0.06 0.06 0.04 0.02 0.00 0.00 0.01 0.01 0.01 0.00 0.00 0.00 0.01 0.02 0.02 0.03 0.03 0.03 0.03 0.03 0.03
0.02 0.02 0.01 0.02 0.01 0.02 0.04 0.03 0.02 0.01 0.01 0.01 0.01 0.01 0.01 0.00 0.01 0.02 0.02 0.03 0.02 0.01 0.00 0.01 0.02 0.02 0.03 0.01 0.02 0.03 0.02 0.02 0.02 0.03 0.03 0.03 0.03 0.03
0.03 0.03 0.01 0.01 0.03 0.03 0.04 0.03 0.02 0.01 0.01 0.01 0.01 0.00 0.00 0.00 0.00 0.00 0.01 0.03 0.04 0.02 0.00 0.03 0.04 0.03 0.04 0.02 0.01 0.01 0.02 0.02 0.02 0.01 0.02 0.02 0.02 0.03
0.03 0.02 0.01 0.01 0.02 0.03 0.03 0.03 0.03 0.02 0.02 0.02 0.01 0.00 0.00 0.00 0.00 0.00 0.00 0.01 0.02 0.02 0.01 0.04 0.07 0.05 0.05 0.03 0.01 0.01 0.02 0.02 0.03 0.02 0.01 0.01 0.02 0.02
0.04 0.02 0.02 0.02 0.02 0.02 0.02 0.03 0.03 0.02 0.02 0.01 0.00 0.00 0.00 0.00 0.00 0.00 0.00 0.01 0.01 0.01 0.02 0.03 0.06 0.06 0.06 0.05 0.02 0.02 0.02 0.02 0.03 0.03 0.03 0.02 0.01 0.01
0.08 0.05 0.04 0.03 0.03 0.01 0.01 0.01 0.01 0.01 0.01 0.00 0.00 0.00 0.00 0.00 0.00 0.00 0.01 0.01 0.01 0.01 0.01 0.02 0.04 0.07 0.07 0.04 0.04 0.02 0.03 0.04 0.03 0.04 0.04 0.03 0.02 0.01
0.08 0.10 0.08 0.06 0.05 0.03 0.01 0.01 0.00 0.00 0.00 0.00 0.00 0.00 0.00 0.00 0.00 0.00 0.01 0.01 0.02 0.02 0.01 0.01 0.02 0.04 0.05 0.05 0.05 0.03 0.02 0.03 0.03 0.04 0.05 0.04 0.02 0.01
0.09 0.09 0.06 0.04 0.03 0.02 0.01 0.01 0.00 0.00 0.00 0.00 0.00 0.00 0.00 0.00 0.00 0.00 0.01 0.02 0.03 0.02 0.02 0.02 0.03 0.04 0.03 0.03 0.03 0.03 0.03 0.03 0.04 0.06 0.06 0.04 0.03 0.01
0.09 0.06 0.03 0.02 0.02 0.01 0.01 0.00 0.00 0.00 0.00 0.00 0.00 0.00 0.00 0.01 0.01 0.01 0.01 0.02 0.02 0.02 0.02 0.03 0.04 0.05 0.05 0.03 0.01 0.03 0.05 0.05 0.06 0.07 0.06 0.04 0.02 0.01
0.07 0.04 0.03 0.02 0.01 0.01 0.01 0.00 0.00 0.00 0.00 0.00 0.00 0.00 0.00 0.01 0.01 0.01 0.02 0.03 0.03 0.03 0.02 0.02 0.04 0.05 0.06 0.04 0.03 0.02 0.03 0.05 0.06 0.06 0.06 0.04 0.03 0.02
0.04 0.03 0.02 0.02 0.01 0.01 0.00 0.00 0.00 0.00 0.00 0.00 0.00 0.00 0.00 0.01 0.01 0.01 0.02 0.03 0.04 0.04 0.03 0.02 0.02 0.03 0.05 0.05 0.03 0.01 0.02 0.03 0.04 0.06 0.05 0.06 0.05 0.04
0.03 0.02 0.02 0.01 0.01 0.01 0.00 0.00 0.00 0.00 0.00 0.00 0.00 0.00 0.01 0.01 0.01 0.02 0.02 0.03 0.04 0.04 0.03 0.02 0.02 0.03 0.05 0.05 0.03 0.01 0.02 0.02 0.02 0.03 0.04 0.04 0.06 0.06
0.02 0.02 0.01 0.01 0.01 0.00 0.00 0.00 0.00 0.00 0.00 0.00 0.01 0.01 0.01 0.01 0.01 0.02 0.02 0.03 0.04 0.04 0.04 0.03 0.03 0.03 0.04 0.04 0.03 0.02 0.02 0.02 0.02 0.02 0.02 0.01 0.03 0.04
MSLP
1015.41 1015.79 1016.20 1016.64 1017.07 1017.47 1017.81 1018.08 1018.26 1018.35 1018.36 1018.30 1018.17 1018.00 1017.79 1017.56 1017.32 1017.07 1016.82 1016.56 1016.30 1016.02 1015.73 1015.42 1015.09 1014.74 1014.38 1014.01 1013.63 1013.25 1012.88 1012.51 1012.14 1011.80 1011.48 1011.19 1010.93 1010.70
1014.32 1014.69 1015.12 1015.57 1016.03 1016.46 1016.84 1017.15 1017.37 1017.51 1017.55 1017.52 1017.41 1017.25 1017.05 1016.82 1016.56 1016.29 1016.00 1015.70 1015.38 1015.05 1014.71 1014.35 1013.98 1013.60 1013.21 1012.82 1012.43 1012.04 1011.65 1011.28 1010.91 1010.57 1010.25 1009.95 1009.70 1009.47
1013.31 1013.70 1014.14 1014.61 1015.08 1015.53 1015.94 1016.27 1016.53 1016.69 1016.77 1016.76 1016.68 1016.53 1016.34 1016.10 1015.82 1015.52 1015.18 1014.83 1014.45 1014.05 1013.64 1013.22 1012.79 1012.37 1011.95 1011.54 1011.13 1010.73 1010.34 1009.95 1009.57 1009.21 1008.88 1008.58 1008.32 1008.09
1012.36 1012.78 1013.24 1013.72 1014.21 1014.67 1015.08 1015.42 1015.69 1015.87 1015.97 1015.98 1015.92 1015.79 1015.59 1015.35 1015.05 1014.71 1014.33 1013.91 1013.46 1012.99 1012.51 1012.03 1011.55 1011.09 1010.64 1010.21 1009.78 1009.37 1008.96 1008.56 1008.16 1007.78 1007.43 1007.11 1006.84 1006.61
1011.44 1011.90 1012.39 1012.89 1013.38 1013.83 1014.24 1014.57 1014.84 1015.01 1015.11 1015.13 1015.08 1014.96 1014.77 1014.52 1014.20 1013.83 1013.40 1012.93 1012.42 1011.88 1011.34 1010.81 1010.29 1009.79 1009.32 1008.86 1008.42 1007.99 1007.56 1007.13 1006.71 1006.30 1005.92 1005.59 1005.31 1005.08
1010.53 1011.03 1011.55 1012.06 1012.55 1012.99 1013.37 1013.68 1013.92 1014.07 1014.16 1014.17 1014.13 1014.01 1013.83 1013.57 1013.25 1012.86 1012.41 1011.89 1011.34 1010.76 1010.17 1009.60 1009.04 1008.52 1008.02 1007.55 1007.09 1006.64 1006.18 1005.71 1005.25 1004.81 1004.41 1004.06 1003.77 1003.55
1009.60 1010.14 1010.68 1011.19 1011.67 1012.09 1012.43 1012.70 1012.89 1013.02 1013.09 1013.09 1013.04 1012.94 1012.77 1012.53 1012.21 1011.82 1011.36 1010.83 1010.25 1009.65 1009.04 1008.44 1007.87 1007.32 1006.81 1006.31 1005.82 1005.34 1004.84 1004.34 1003.83 1003.35 1002.92 1002.55 1002.26 1002.05
1008.62 1009.18 1009.73 1010.25 1010.70 1011.08 1011.38 1011.61 1011.76 1011.85 1011.89 1011.89 1011.85 1011.76 1011.62 1011.41 1011.12 1010.76 1010.31 1009.79 1009.22 1008.61 1007.99 1007.38 1006.79 1006.23 1005.69 1005.17 1004.64 1004.11 1003.56 1003.01 1002.45 1001.93 1001.46 1001.08 1000.79 1000.60
1007.60 1008.16 1008.70 1009.20 1009.62 1009.96 1010.22 1010.40 1010.52 1010.58 1010.61 1010.62 1010.60 1010.54 1010.44 1010.28 1010.04 1009.71 1009.30 1008.81 1008.26 1007.66 1007.05 1006.43 1005.83 1005.25 1004.68 1004.11 1003.54 1002.95 1002.34 1001.72 1001.11 1000.54 1000.04 999.64 999.35 999.17
1006.52 1007.07 1007.59 1008.05 1008.45 1008.75 1008.97 1009.12 1009.22 1009.27 1009.31 1009.33 1009.35 1009.34 1009.29 1009.18 1009.00 1008.73 1008.37 1007.92 1007.40 1006.82 1006.21 1005.59 1004.97 1004.36 1003.75 1003.13 1002.50 1001.84 1001.16 1000.47 999.79 999.17 998.63 998.20 997.91 997.75
1005.43 1005.94 1006.43 1006.86 1007.22 1007.50 1007.70 1007.83 1007.93 1007.99 1008.05 1008.11 1008.17 1008.22 1008.23 1008.18 1008.06 1007.85 1007.53 1007.12 1006.62 1006.06 1005.46 1004.83 1004.19 1003.54 1002.87 1002.19 1001.48 1000.75 999.98 999.22 998.48 997.79 997.21 996.77 996.47 996.31
1004.37 1004.83 1005.27 1005.67 1006.01 1006.27 1006.47 1006.61 1006.72 1006.82 1006.92 1007.03 1007.13 1007.23 1007.30 1007.30 1007.22 1007.05 1006.77 1006.38 1005.90 1005.34 1004.74 1004.09 1003.42 1002.72 1002.01 1001.26 1000.47 999.65 998.81 997.97 997.16 996.42 995.79 995.32 995.01 994.85
1003.37 1003.78 1004.19 1004.56 1004.88 1005.14 1005.35 1005.52 1005.67 1005.81 1005.96 1006.11 1006.27 1006.41 1006.50 1006.54 1006.48 1006.32 1006.05 1005.67 1005.18 1004.62 1004.00 1003.33 1002.62 1001.88 1001.11 1000.30 999.44 998.54 997.63 996.71 995.84 995.05 994.38 993.88 993.56 993.40
1002.48 1002.84 1003.21 1003.57 1003.89 1004.17 1004.41 1004.62 1004.81 1005.00 1005.19 1005.39 1005.57 1005.73 1005.83 1005.86 1005.80 1005.62 1005.33 1004.93 1004.43 1003.85 1003.21 1002.51 1001.77 1000.99 1000.17 999.31 998.39 997.43 996.45 995.48 994.55 993.72 993.02 992.49 992.15 991.99
1001.70 1002.03 1002.38 1002.73 1003.06 1003.37 1003.65 1003.91 1004.15 1004.39 1004.61 1004.83 1005.02 1005.17 1005.25 1005.25 1005.14 1004.93 1004.59 1004.15 1003.62 1003.01 1002.34 1001.62 1000.86 1000.05 999.20 998.30 997.34 996.34 995.31 994.29 993.33 992.46 991.73 991.19 990.84 990.68
1001.04 1001.35 1001.69 1002.05 1002.40 1002.74 1003.07 1003.37 1003.66 1003.94 1004.19 1004.41 1004.58 1004.70 1004.73 1004.66 1004.49 1004.20 1003.81 1003.32 1002.74 1002.10 1001.41 1000.68 999.90 999.09 998.22 997.30 996.32 995.30 994.25 993.20 992.21 991.32 990.57 990.02 989.66 989.50
1000.49 1000.79 1001.13 1001.50 1001.88 1002.26 1002.62 1002.97 1003.30 1003.60 1003.85 1004.06 1004.20 1004.25 1004.21 1004.07 1003.81 1003.45 1002.98 1002.44 1001.82 1001.16 1000.45 999.72 998.95 998.14 997.28 996.36 995.38 994.35 993.29 992.24 991.24 990.33 989.58 989.02 988.66 988.49
1000.01 1000.31 1000.66 1001.05 1001.45 1001.86 1002.26 1002.64 1002.99 1003.29 1003.54 1003.72 1003.81 1003.81 1003.69 1003.45 1003.11 1002.67 1002.14 1001.55 1000.90 1000.22 999.52 998.79 998.04 997.24 996.40 995.50 994.53 993.51 992.46 991.42 990.42 989.52 988.77 988.21 987.85 987.69
999.57 999.88 1000.24 1000.64 1001.06 1001.49 1001.91 1002.31 1002.67 1002.98 1003.21 1003.36 1003.40 1003.32 1003.13 1002.82 1002.40 1001.90 1001.32 1000.68 1000.02 999.33 998.64 997.93 997.20 996.43 995.62 994.74 993.80 992.80 991.77 990.75 989.77 988.88 988.14 987.59 987.23 987.07
999.17 999.48 999.85 1000.25 1000.68 1001.11 1001.55 1001.95 1002.31 1002.61 1002.82 1002.93 1002.92 1002.79 1002.54 1002.17 1001.70 1001.15 1000.53 999.88 999.21 998.53 997.85 997.16 996.45 995.71 994.93 994.08 993.17 992.20 991.20 990.20 989.25 988.39 987.67 987.12 986.77 986.61
998.78 999.10 999.46 999.86 1000.28 1000.71 1001.14 1001.54 1001.89 1002.17 1002.36 1002.44 1002.39 1002.22 1001.93 1001.52 1001.02 1000.44 999.81 999.15 998.49 997.82 997.15 996.48 995.80 995.08 994.32 993.49 992.61 991.67 990.70 989.74 988.83 988.00 987.31 986.78 986.44 986.28
998.42 998.73 999.08 999.46 999.87 1000.28 1000.69 1001.07 1001.40 1001.66 1001.83 1001.88 1001.81 1001.62 1001.30 1000.88 1000.36 999.78 999.16 998.50 997.85 997.19 996.54 995.89 995.21 994.51 993.76 992.95 992.09 991.18 990.25 989.33 988.46 987.68 987.02 986.53 986.20 986.04
998.10 998.40 998.73 999.09 999.46 999.85 1000.22 1000.58 1000.88 1001.11 1001.25 1001.29 1001.21 1001.00 1000.68 1000.25 999.74 999.17 998.56 997.93 997.28 996.64 995.99 995.34 994.67 993.97 993.22 992.42 991.58 990.70 989.81 988.93 988.11 987.37 986.76 986.30 986.00 985.84
Thickness
5482 5474 5467 5462 5454 5447 5440 5431 5419 5410 5413 5412 5405 5402 5395 5390 5385 5381 5377 5373 5369 5366 5362 5359 5355 5351 5347 5342 5338 5333 5329 5324 5320 5316 5315 5314 5316 5319
5473 5465 5458 5450 5442 5434 5427 5419 5411 5404 5400 5400 5394 5388 5381 5375 5370 5366 5363 5359 5355 5351 5347 5343 5338 5334 5329 5324 5319 5314 5309 5305 5300 5297 5295 5294 5295 5297
5465 5457 5451 5440 5431 5423 5414 5407 5400 5392 5390 5390 5382 5375 5367 5362 5357 5352 5348 5344 5341 5336 5332 5327 5322 5317 5312 5307 5302 5296 5291 5287 5283 5280 5278 5277 5278 5280
5459 5449 5442 5430 5421 5412 5403 5396 5389 5383 5377 5375 5371 5363 5356 5350 5344 5340 5336 5332 5328 5324 5319 5314 5309 5303 5298 5292 5286 5281 5276 5271 5268 5265 5263 5262 5263 5266
5451 5441 5433 5421 5413 5403 5394 5386 5379 5372 5366 5362 5360 5352 5346 5338 5332 5329 5325 5321 5316 5311 5306 5301 5296 5290 5284 5278 5272 5267 5262 5258 5255 5253 5251 5250 5250 5253
5443 5434 5424 5414 5405 5393 5384 5376 5368 5360 5354 5349 5347 5342 5336 5329 5320 5317 5315 5310 5305 5299 5294 5288 5283 5278 5272 5265 5260 5255 5250 5246 5243 5241 5240 5239 5240 5243
5435 5426 5417 5406 5396 5385 5375 5367 5358 5350 5343 5338 5334 5329 5326 5318 5311 5306 5302 5300 5296 5286 5281 5278 5270 5267 5261 5254 5248 5243 5239 5236 5233 5231 5230 5231 5232 5236
5426 5417 5407 5398 5390 5380 5372 5362 5351 5341 5334 5328 5324 5320 5317 5309 5301 5294 5289 5286 5288 5280 5268 5270 5259 5256 5251 5245 5240 5235 5232 5228 5225 5223 5222 5223 5227 5232
5416 5406 5397 5390 5379 5369 5362 5356 5348 5341 5332 5321 5316 5313 5307 5300 5290 5284 5279 5275 5275 5268 5255 5261 5254 5248 5244 5238 5233 5229 5225 5222 5219 5218 5217 5219 5223 5230
5408 5398 5388 5379 5370 5359 5350 5342 5336 5330 5323 5316 5310 5305 5296 5288 5279 5274 5270 5267 5267 5258 5245 5245 5247 5241 5238 5232 5225 5221 5218 5216 5214 5213 5213 5216 5222 5230
5400 5390 5379 5370 5361 5351 5341 5334 5327 5321 5314 5308 5303 5296 5290 5283 5275 5267 5262 5257 5259 5257 5240 5230 5234 5231 5232 5227 5220 5214 5212 5210 5208 5208 5210 5215 5222 5229
5391 5382 5373 5363 5353 5344 5336 5328 5321 5314 5305 5298 5293 5288 5282 5275 5268 5259 5252 5246 5245 5246 5237 5224 5222 5216 5223 5226 5216 5209 5204 5201 5200 5203 5207 5213 5222 5229
5381 5373 5365 5356 5348 5339 5331 5322 5316 5308 5299 5292 5286 5280 5273 5267 5260 5253 5245 5237 5234 5235 5229 5218 5215 5209 5205 5215 5214 5204 5198 5196 5195 5198 5203 5212 5222 5233
5372 5364 5356 5348 5341 5333 5325 5317 5310 5302 5293 5286 5279 5274 5267 5261 5255 5248 5241 5235 5230 5227 5224 5213 5209 5205 5202 5204 5208 5206 5199 5193 5192 5196 5202 5212 5224 5238
5364 5356 5348 5340 5333 5325 5318 5310 5302 5293 5285 5278 5273 5267 5261 5254 5248 5243 5237 5232 5228 5224 5219 5213 5207 5204 5200 5200 5202 5202 5198 5197 5194 5198 5205 5216 5228 5241
5354 5347 5340 5333 5324 5316 5308 5300 5292 5284 5277 5271 5265 5260 5253 5248 5242 5236 5232 5228 5225 5225 5219 5212 5207 5203 5202 5201 5199 5201 5198 5196 5200 5202 5209 5221 5235 5249
5342 5336 5329 5322 5315 5306 5298 5290 5282 5275 5270 5264 5257 5251 5247 5242 5238 5232 5227 5223 5221 5221 5220 5214 5209 5205 5203 5201 5203 5204 5202 5202 5203 5207 5215 5228 5244 5259
5335 5328 5321 5313 5306 5298 5290 5282 5275 5269 5263 5256 5250 5244 5240 5235 5232 5228 5223 5219 5217 5216 5215 5212 5209 5208 5208 5209 5208 5208 5208 5208 5211 5215 5223 5236 5253 5270
5328 5319 5311 5304 5297 5289 5282 5275 5268 5262 5256 5249 5244 5238 5234 5230 5227 5224 5221 5218 5215 5214 5212 5209 5206 5205 5207 5212 5214 5214 5212 5214 5217 5224 5233 5246 5262 5280
5320 5312 5304 5296 5289 5282 5275 5268 5262 5255 5249 5244 5238 5233 5229 5226 5223 5221 5219 5215 5214 5213 5212 5209 5205 5204 5205 5209 5214 5218 5216 5217 5223 5233 5245 5256 5270 5287
5313 5305 5297 5289 5282 5275 5269 5262 5256 5250 5245 5239 5234 5229 5226 5223 5221 5219 5217 5215 5213 5211 5211 5211 5209 5209 5209 5211 5216 5224 5226 5228 5232 5240 5252 5265 5279 5296
5307 5299 5292 5284 5277 5269 5263 5257 5251 5246 5240 5235 5231 5227 5224 5221 5220 5218 5216 5213 5212 5211 5212 5213 5213 5213 5213 5216 5221 5227 5232 5238 5244 5252 5262 5272 5287 5306
5302 5294 5287 5280 5272 5265 5259 5253 5248 5243 5237 5232 5228 5225 5222 5220 5218 5216 5214 5213 5213 5214 5215 5216 5217 5217 5220 5223 5227 5232 5237 5244 5251 5262 5274 5285 5297 5312